Home   Weather   Saint John   Past weeks

Flag for Canada Past Weather in Saint John, New Brunswick, Canada — Yesterday and Last 2 Weeks

43 °F

Passing clouds.

Feels Like: 36 °F
Forecast: 38 / 49 °F
Wind: 13 mph from Southwest

Location: Saint John

Current Time: Oct 24, 2016 at 5:45:19 AM

Latest Report: Oct 24, 2016 at 5:00 AM

Visibility: 15 mi

Pressure: 29.54 "Hg

Humidity: 61%

Dew Point: 30 °F

Location of Saint JohnLocation

Past Weather in Saint John — Graph


Saint John Temperature Yesterday

Maximum temperature yesterday: 55 °F (at 12:00 AM)
Minimum temperature yesterday: 41 °F (at 7:00 PM)
Average temperature yesterday: 47 °F

High & Low Weather Summary for the Past Weeks

High72 °F (Oct 19, 3:00 PM)100% (Oct 9, 4:00 AM)30.45 "Hg (Oct 9, 4:00 AM)
Low27 °F (Oct 15, 4:00 AM)33% (Oct 11, 4:00 PM)29.13 "Hg (Oct 22, 4:52 PM)
Average50 °F84%29.98 "Hg
* Reported Oct 9 4:00 AM — Oct 24 4:00 AM, Saint John, Weather by CustomWeather, © 2016

Note: Actual official high and low records may vary slightly from our data, if they occured in-between our weather recording intervals... More about our weather records


Saint John Weather History for the Previous 24 Hours

Scroll right to see more
Time TempWeatherWind HumidityBarometerVisibility
4:00 AM
Mon, Oct 24
45 °FPassing clouds.20 mph57%29.53 "Hg15 mi
3:00 AM45 °FOvercast.22 mph61%29.52 "Hg15 mi
2:00 AM43 °FOvercast.9 mph71%29.52 "Hg15 mi
1:00 AM43 °FPartly cloudy.17 mph71%29.50 "Hg15 mi
12:00 AM43 °FPartly cloudy.20 mph66%29.49 "Hg15 mi
11:00 PM
Sun, Oct 23
43 °FPassing clouds.15 mph66%29.47 "Hg15 mi
10:00 PM43 °FOvercast.14 mph66%29.46 "Hg15 mi
9:00 PM43 °FOvercast.18 mph66%29.46 "Hg15 mi
8:00 PM43 °FOvercast.18 mph66%29.45 "Hg15 mi
7:00 PM41 °FPartly cloudy.12 mph76%29.42 "Hg15 mi
6:00 PM43 °FMostly cloudy.6 mph76%29.39 "Hg15 mi
5:00 PM45 °FMostly cloudy.9 mph66%29.37 "Hg15 mi
4:00 PM45 °FMostly cloudy.14 mph71%29.36 "Hg15 mi
3:00 PM45 °FMore clouds than sun.13 mph66%29.34 "Hg15 mi
2:00 PM45 °FBroken clouds.15 mph71%29.33 "Hg12 mi
1:00 PM45 °FPartly sunny.22 mph71%29.32 "Hg10 mi
12:00 PM43 °FLight rain. Fog.17 mph93%29.31 "Hg6 mi
11:00 AM45 °FLight rain. More clouds than sun.13 mph93%29.30 "Hg8 mi
10:00 AM46 °FLight rain. Mostly cloudy.23 mph82%29.29 "Hg8 mi
9:00 AM46 °FLight rain. Fog.26 mph87%29.28 "Hg6 mi
8:00 AM46 °FLight rain. Fog.22 mph93%29.27 "Hg5 mi
7:00 AM48 °FLight rain. Overcast.28 mph82%29.27 "Hg10 mi
6:00 AM48 °FLight rain. Fog.26 mph94%29.26 "Hg3 mi
5:00 AM48 °FLight rain. Fog.26 mph100%29.26 "Hg3 mi
Weather by CustomWeather, © 2016

See weather overviewHow to use our weather pages